Precipitable_Water
0.66 0.64 0.68 0.70 0.72 0.71 0.69 0.66 0.66 0.64 0.65 0.64 0.58 0.53 0.51 0.44 0.57 0.49 0.32 0.45 0.47 0.54 0.53 0.43 0.29 0.41 0.66 0.73 0.89 0.93 0.64 0.54 0.58 0.62 0.65 0.75 0.72 0.79 0.89 0.88 1.01 1.04 1.03 1.14 1.19
0.67 0.64 0.67 0.69 0.69 0.69 0.66 0.64 0.62 0.62 0.62 0.61 0.58 0.55 0.52 0.45 0.47 0.36 0.46 0.51 0.44 0.47 0.48 0.37 0.29 0.32 0.35 0.51 0.69 0.65 0.54 0.52 0.64 0.68 0.69 0.74 0.76 0.76 0.75 0.77 0.88 0.95 1.11 1.19 1.24
0.67 0.69 0.70 0.70 0.69 0.69 0.70 0.64 0.61 0.60 0.58 0.54 0.53 0.53 0.52 0.44 0.40 0.30 0.42 0.44 0.42 0.40 0.45 0.49 0.42 0.33 0.21 0.37 0.51 0.58 0.44 0.57 0.62 0.69 0.72 0.75 0.76 0.78 0.73 0.67 0.82 0.81 1.02 1.11 1.16
0.74 0.76 0.76 0.74 0.69 0.66 0.65 0.64 0.59 0.56 0.53 0.50 0.50 0.50 0.45 0.36 0.21 0.30 0.43 0.47 0.46 0.37 0.34 0.35 0.35 0.25 0.21 0.21 0.38 0.36 0.49 0.56 0.59 0.68 0.67 0.68 0.77 0.73 0.74 0.75 0.92 0.99 1.08 1.13 1.13
0.82 0.80 0.77 0.71 0.68 0.65 0.61 0.61 0.58 0.52 0.50 0.48 0.49 0.49 0.38 0.24 0.25 0.41 0.46 0.44 0.47 0.39 0.32 0.32 0.33 0.34 0.23 0.25 0.31 0.35 0.45 0.52 0.57 0.60 0.66 0.68 0.68 0.69 0.71 0.82 0.91 0.97 1.08 1.11 1.14
0.82 0.74 0.71 0.67 0.64 0.61 0.60 0.57 0.54 0.46 0.42 0.43 0.45 0.45 0.31 0.17 0.35 0.41 0.42 0.40 0.40 0.39 0.35 0.35 0.38 0.39 0.30 0.30 0.30 0.35 0.44 0.50 0.55 0.55 0.59 0.59 0.61 0.70 0.72 0.82 0.83 0.87 0.95 1.08 1.13
0.74 0.66 0.63 0.62 0.61 0.59 0.56 0.54 0.47 0.42 0.41 0.43 0.44 0.38 0.22 0.18 0.31 0.35 0.34 0.33 0.33 0.37 0.34 0.41 0.41 0.36 0.41 0.31 0.38 0.35 0.28 0.32 0.44 0.51 0.52 0.60 0.44 0.51 0.71 0.75 0.73 0.79 0.88 0.97 1.09
0.62 0.60 0.60 0.60 0.59 0.56 0.52 0.47 0.41 0.40 0.42 0.44 0.44 0.35 0.17 0.29 0.35 0.32 0.31 0.27 0.29 0.31 0.39 0.46 0.45 0.37 0.31 0.35 0.29 0.25 0.27 0.22 0.26 0.30 0.46 0.53 0.22 0.45 0.64 0.68 0.66 0.71 0.82 0.93 1.02
0.62 0.58 0.58 0.60 0.58 0.53 0.46 0.40 0.38 0.41 0.39 0.43 0.37 0.32 0.17 0.33 0.27 0.32 0.34 0.26 0.29 0.34 0.41 0.44 0.42 0.31 0.27 0.23 0.21 0.23 0.17 0.18 0.23 0.32 0.32 0.37 0.29 0.47 0.57 0.63 0.63 0.66 0.69 0.82 0.97
0.68 0.61 0.58 0.60 0.55 0.45 0.38 0.36 0.35 0.39 0.33 0.36 0.34 0.27 0.23 0.23 0.29 0.32 0.36 0.35 0.27 0.30 0.31 0.32 0.32 0.25 0.24 0.22 0.14 0.17 0.21 0.23 0.23 0.25 0.36 0.37 0.34 0.44 0.49 0.53 0.54 0.64 0.66 0.71 0.87
0.64 0.64 0.60 0.57 0.49 0.38 0.34 0.30 0.26 0.26 0.25 0.21 0.21 0.21 0.23 0.32 0.34 0.31 0.35 0.34 0.32 0.30 0.20 0.26 0.18 0.17 0.20 0.21 0.19 0.17 0.16 0.18 0.24 0.32 0.34 0.33 0.35 0.46 0.54 0.57 0.55 0.58 0.61 0.70 0.78
0.61 0.64 0.62 0.55 0.44 0.37 0.33 0.24 0.28 0.33 0.20 0.25 0.25 0.26 0.31 0.35 0.22 0.27 0.36 0.24 0.23 0.18 0.23 0.20 0.14 0.23 0.24 0.24 0.23 0.22 0.18 0.16 0.19 0.25 0.26 0.28 0.28 0.36 0.40 0.44 0.53 0.55 0.59 0.65 0.75
0.64 0.63 0.60 0.51 0.40 0.38 0.29 0.31 0.47 0.44 0.21 0.18 0.22 0.24 0.25 0.29 0.22 0.24 0.31 0.28 0.22 0.19 0.19 0.16 0.16 0.20 0.21 0.21 0.23 0.24 0.21 0.20 0.18 0.20 0.22 0.25 0.19 0.24 0.31 0.39 0.45 0.54 0.60 0.63 0.73
0.66 0.63 0.58 0.47 0.38 0.35 0.30 0.43 0.49 0.47 0.17 0.13 0.17 0.26 0.26 0.26 0.23 0.32 0.35 0.31 0.26 0.20 0.20 0.18 0.21 0.19 0.21 0.22 0.28 0.21 0.28 0.26 0.23 0.18 0.12 0.21 0.12 0.21 0.29 0.26 0.29 0.43 0.49 0.56 0.64
0.65 0.62 0.54 0.44 0.36 0.29 0.35 0.47 0.49 0.35 0.09 0.15 0.18 0.29 0.26 0.21 0.23 0.29 0.36 0.33 0.22 0.19 0.22 0.19 0.23 0.24 0.23 0.25 0.29 0.23 0.30 0.27 0.24 0.20 0.18 0.16 0.16 0.16 0.27 0.22 0.27 0.28 0.39 0.50 0.56
0.65 0.59 0.49 0.43 0.41 0.40 0.46 0.46 0.36 0.14 0.08 0.12 0.18 0.17 0.17 0.21 0.23 0.26 0.28 0.33 0.31 0.23 0.24 0.23 0.31 0.32 0.29 0.32 0.32 0.34 0.29 0.29 0.26 0.23 0.14 0.19 0.18 0.12 0.16 0.21 0.32 0.36 0.33 0.47 0.51
0.65 0.57 0.48 0.47 0.34 0.46 0.42 0.32 0.13 0.10 0.15 0.13 0.13 0.17 0.16 0.17 0.20 0.22 0.21 0.22 0.19 0.15 0.12 0.15 0.21 0.30 0.36 0.29 0.33 0.33 0.28 0.17 0.14 0.15 0.11 0.17 0.18 0.13 0.19 0.22 0.25 0.26 0.34 0.37 0.44
0.62 0.53 0.50 0.48 0.50 0.45 0.34 0.21 0.10 0.12 0.12 0.17 0.17 0.16 0.14 0.18 0.18 0.20 0.20 0.19 0.27 0.24 0.17 0.13 0.10 0.26 0.32 0.30 0.28 0.28 0.31 0.20 0.13 0.13 0.15 0.24 0.21 0.17 0.32 0.43 0.46 0.41 0.45 0.45 0.48
0.61 0.53 0.49 0.49 0.48 0.42 0.26 0.13 0.12 0.13 0.16 0.16 0.17 0.12 0.14 0.18 0.19 0.20 0.21 0.20 0.24 0.28 0.18 0.16 0.13 0.21 0.25 0.32 0.35 0.31 0.24 0.35 0.25 0.25 0.20 0.19 0.20 0.23 0.33 0.42 0.44 0.45 0.49 0.53 0.51
0.55 0.48 0.44 0.50 0.46 0.36 0.19 0.15 0.15 0.19 0.20 0.20 0.12 0.15 0.12 0.15 0.17 0.18 0.19 0.24 0.24 0.32 0.32 0.24 0.14 0.20 0.28 0.33 0.39 0.37 0.39 0.26 0.28 0.18 0.15 0.19 0.21 0.21 0.31 0.37 0.42 0.43 0.46 0.56 0.56
0.52 0.39 0.48 0.51 0.44 0.28 0.16 0.16 0.17 0.22 0.24 0.18 0.16 0.14 0.16 0.16 0.18 0.16 0.18 0.25 0.29 0.29 0.31 0.28 0.23 0.18 0.23 0.29 0.31 0.34 0.32 0.33 0.32 0.27 0.19 0.20 0.23 0.44 0.41 0.42 0.41 0.44 0.47 0.52 0.65
0.50 0.32 0.52 0.50 0.27 0.24 0.18 0.19 0.22 0.22 0.25 0.24 0.22 0.19 0.17 0.19 0.18 0.17 0.15 0.22 0.33 0.31 0.24 0.29 0.23 0.17 0.20 0.31 0.38 0.40 0.34 0.34 0.26 0.24 0.29 0.28 0.24 0.49 0.47 0.44 0.47 0.47 0.50 0.59 0.76
0.45 0.43 0.54 0.47 0.21 0.20 0.22 0.21 0.22 0.20 0.20 0.21 0.19 0.21 0.22 0.19 0.15 0.17 0.18 0.24 0.31 0.27 0.25 0.29 0.23 0.16 0.19 0.29 0.37 0.31 0.33 0.37 0.37 0.35 0.27 0.25 0.31 0.54 0.54 0.49 0.51 0.52 0.55 0.62 0.71
0.47 0.35 0.43 0.42 0.34 0.23 0.19 0.19 0.17 0.23 0.20 0.22 0.20 0.22 0.20 0.16 0.19 0.14 0.15 0.20 0.25 0.28 0.34 0.34 0.25 0.23 0.18 0.21 0.28 0.27 0.32 0.37 0.36 0.29 0.30 0.32 0.35 0.45 0.48 0.49 0.52 0.56 0.60 0.63 0.71
0.49 0.40 0.42 0.30 0.28 0.25 0.22 0.20 0.17 0.15 0.20 0.20 0.17 0.17 0.16 0.12 0.13 0.12 0.15 0.17 0.18 0.29 0.31 0.28 0.20 0.24 0.27 0.30 0.31 0.33 0.33 0.35 0.34 0.35 0.30 0.35 0.37 0.44 0.48 0.50 0.53 0.56 0.59 0.62 0.67
0.47 0.42 0.42 0.36 0.32 0.27 0.24 0.18 0.16 0.16 0.15 0.13 0.13 0.16 0.17 0.12 0.11 0.10 0.13 0.15 0.14 0.23 0.27 0.30 0.21 0.25 0.23 0.32 0.34 0.31 0.35 0.36 0.36 0.36 0.36 0.39 0.39 0.53 0.56 0.57 0.56 0.57 0.60 0.62 0.66
0.60 0.58 0.45 0.37 0.31 0.26 0.22 0.18 0.16 0.17 0.15 0.16 0.16 0.15 0.13 0.15 0.19 0.18 0.18 0.19 0.19 0.21 0.25 0.27 0.24 0.22 0.20 0.29 0.31 0.26 0.32 0.35 0.37 0.39 0.38 0.33 0.42 0.52 0.53 0.54 0.55 0.59 0.61 0.63 0.67
Wind_Speed
11 11 11 12 12 13 14 14 14 14 14 15 15 15 15 14 12 11 11 15 17 18 18 18 18 20 22 22 23 22 25 27 27 25 24 22 23 23 21 23 21 20 19 16 17
10 11 11 12 12 13 14 15 15 15 15 15 15 16 16 14 12 11 14 16 17 18 18 19 19 20 21 21 22 25 27 30 27 26 26 26 25 25 23 25 25 23 21 20 19
10 11 11 12 13 14 15 15 15 16 16 16 16 16 16 14 13 13 16 17 17 17 18 20 21 22 24 25 26 25 31 27 27 27 27 28 27 26 25 27 26 26 25 23 23
10 11 12 12 13 13 13 14 15 15 16 16 17 17 16 13 13 16 17 18 18 18 18 18 19 22 23 26 27 32 30 28 29 29 28 31 29 31 28 28 22 25 25 26 25
11 11 11 11 12 13 13 14 15 16 16 17 17 17 13 11 14 17 19 20 19 19 18 18 19 20 24 25 28 33 31 31 30 31 31 31 33 32 32 28 28 27 27 28 27
10 10 9 10 12 13 14 15 17 18 18 18 19 17 14 13 17 19 21 21 20 20 20 20 20 22 25 26 29 27 29 31 31 32 33 34 35 35 35 33 33 31 30 30 31
8 9 10 11 12 13 15 16 18 19 19 19 18 17 14 17 20 21 22 22 22 21 22 21 22 23 23 26 27 31 34 35 35 33 35 32 39 40 35 33 34 32 32 33 33
8 9 10 11 13 14 16 18 19 19 18 18 18 15 16 20 22 23 23 22 22 23 22 23 23 25 27 28 30 32 34 35 34 38 36 33 44 35 36 38 37 36 33 34 35
9 10 11 12 13 15 17 18 18 17 19 18 17 18 18 23 25 23 23 24 24 22 24 24 24 25 26 28 29 29 31 33 32 34 35 40 44 36 34 35 38 39 37 34 35
10 11 11 12 14 16 17 17 17 17 19 18 19 18 19 24 24 23 23 23 22 24 23 23 23 24 26 26 27 27 30 33 34 33 35 37 42 40 39 38 39 38 37 38 36
11 11 11 12 14 15 16 16 17 16 19 18 19 18 22 25 20 22 23 23 22 23 22 22 23 25 27 28 30 33 35 37 36 35 35 39 41 39 38 37 36 39 40 39 37
11 11 11 12 13 14 15 16 17 18 19 17 19 19 22 22 21 22 24 23 24 24 23 23 25 21 25 27 28 30 34 36 37 36 39 41 45 44 44 44 41 40 41 40 39
10 10 10 11 13 14 15 16 18 19 19 16 18 19 22 23 20 23 24 25 24 22 23 24 26 27 25 27 28 29 31 33 36 35 38 40 49 47 47 47 46 45 43 42 39
10 10 11 12 13 14 16 17 19 19 16 17 17 18 22 22 19 23 22 23 21 22 24 21 20 23 25 26 26 29 28 29 32 32 32 31 35 36 37 45 50 47 47 45 44
10 10 11 12 13 15 16 18 19 17 16 18 19 21 24 19 23 19 24 22 23 24 21 20 23 24 25 25 24 25 25 27 30 32 34 35 34 31 35 42 42 46 48 48 48
10 11 11 12 13 14 16 18 17 15 13 19 20 22 22 19 21 22 22 22 23 23 20 24 26 21 19 20 22 24 25 26 28 28 31 32 34 37 37 38 36 36 45 43 46
11 11 11 12 13 15 16 17 16 14 18 19 20 22 21 21 21 22 25 22 21 23 23 25 18 14 15 19 18 18 20 18 17 19 26 26 29 39 31 35 37 39 39 41 44
11 11 11 12 14 14 16 16 15 15 18 19 20 21 19 22 21 25 23 22 20 21 25 21 18 14 14 20 20 22 16 15 18 19 23 25 24 27 26 26 28 31 36 37 42
11 11 12 13 13 14 15 15 15 16 17 20 21 18 18 20 22 23 22 20 21 21 21 21 16 23 24 19 14 10 12 12 18 24 21 17 25 32 31 26 25 29 32 36 39
13 12 13 14 13 14 14 15 15 16 17 19 19 18 19 20 21 23 20 19 22 19 24 18 19 15 13 16 10 8 8 9 8 9 14 15 20 21 17 23 27 28 29 31 38
13 13 13 13 13 13 14 15 16 16 17 18 18 18 18 19 19 19 20 21 19 22 23 20 12 15 18 6 8 5 5 8 10 11 11 13 12 12 20 23 28 29 32 32 35
14 14 13 13 13 13 14 14 16 16 17 19 18 17 18 18 18 17 18 18 20 22 19 15 12 12 17 15 8 6 10 11 10 10 14 18 17 14 20 23 24 27 26 28 29
14 14 13 13 12 13 14 15 16 16 17 17 17 16 16 17 18 16 18 18 20 21 14 13 8 11 8 3 5 12 15 14 15 13 16 14 11 17 22 23 23 24 22 21 23
15 14 14 14 14 13 13 15 16 16 17 17 17 16 16 17 17 18 18 18 21 19 13 11 9 10 12 16 15 15 16 16 11 9 13 10 17 20 24 22 18 14 15 16 21
17 15 14 13 15 14 14 13 14 16 17 17 16 16 15 17 17 15 17 19 20 12 12 12 11 13 15 17 16 14 14 13 11 12 9 14 16 19 22 20 10 3 9 15 19
19 17 15 14 13 12 14 14 15 16 16 16 16 15 15 17 17 20 20 19 17 14 15 10 9 13 16 11 8 12 9 11 10 13 12 15 13 19 21 19 12 5 6 13 16
22 18 17 14 14 13 14 14 15 14 16 16 15 17 18 20 19 20 19 19 18 16 11 9 8 9 7 10 10 3 11 10 8 13 13 11 13 18 17 18 17 11 8 11 16
Wind_Direction
314 318 321 323 326 328 329 330 329 327 324 319 315 312 309 302 297 291 292 287 283 282 278 272 263 256 255 250 247 247 245 246 247 246 250 246 244 240 243 241 238 236 240 243 227
313 317 321 323 325 327 327 327 327 326 325 323 318 315 312 299 286 300 296 297 291 285 278 271 266 262 253 249 247 243 247 249 250 250 250 249 243 243 240 238 238 236 237 238 227
313 317 320 322 324 326 327 327 327 327 325 324 322 318 313 298 284 293 302 300 296 290 280 271 265 260 254 249 247 249 250 254 252 253 248 250 245 245 242 242 238 239 236 232 229
310 314 318 322 325 328 333 335 336 334 330 328 324 320 313 300 290 298 301 301 297 292 285 279 270 260 255 250 249 253 253 256 255 254 250 250 249 248 245 245 245 240 241 230 228
308 312 317 322 327 330 333 336 336 334 332 331 329 327 317 310 305 300 302 300 296 293 287 282 275 268 260 259 257 255 255 257 256 253 253 252 249 250 246 246 245 242 244 232 232
306 311 316 322 326 327 328 330 331 329 327 326 325 326 317 317 311 306 304 299 297 294 288 282 274 271 266 263 259 261 263 259 258 255 253 253 252 250 248 248 247 245 242 238 235
307 311 315 320 324 326 326 326 326 326 324 323 322 318 317 319 313 311 307 301 296 293 288 283 277 271 271 266 264 263 265 261 255 254 253 256 253 248 249 247 246 244 241 240 237
305 311 317 319 321 324 325 325 325 325 327 325 323 317 313 317 314 312 308 302 298 292 287 283 278 273 267 268 267 265 263 261 256 252 251 248 255 252 248 246 245 244 241 240 237
308 309 314 317 321 324 325 326 327 328 329 326 322 317 316 316 319 313 311 305 300 293 290 284 280 274 271 267 268 258 260 261 263 252 252 245 255 252 251 249 244 243 242 240 237
306 310 313 318 322 325 327 328 329 326 327 322 324 313 318 320 317 315 315 308 302 298 288 287 281 277 271 267 265 270 266 263 261 257 256 255 257 253 248 248 247 243 241 240 237
305 310 314 319 325 329 331 329 328 325 334 328 323 318 319 322 314 318 318 314 308 298 297 292 285 279 280 275 271 270 268 266 263 262 265 261 260 257 253 251 250 245 240 241 238
299 306 313 319 325 332 332 334 333 326 323 322 322 318 320 322 314 320 322 319 314 307 302 293 285 285 284 278 274 271 269 266 265 260 258 261 259 254 251 250 248 247 244 241 240
295 303 309 317 323 329 336 334 330 327 320 322 322 321 325 324 317 319 322 319 315 310 306 296 288 290 284 280 275 274 271 268 266 265 261 262 261 257 251 250 248 245 244 243 243
290 300 307 312 317 325 330 331 329 327 320 326 325 323 325 323 316 318 321 320 316 313 311 298 295 291 289 283 280 278 276 273 266 264 260 258 261 256 252 249 245 244 242 241 240
285 298 306 311 316 322 326 328 328 327 321 328 324 324 325 324 323 321 323 317 315 315 307 302 301 297 290 284 282 277 277 273 270 266 265 256 259 258 248 248 249 242 242 240 238
281 293 303 308 316 321 325 327 328 327 326 326 324 327 329 323 324 321 324 319 313 315 305 294 296 287 285 289 284 278 278 275 270 264 259 259 251 259 252 252 251 249 242 240 236
277 292 299 304 312 319 324 326 328 331 328 328 327 328 327 325 324 328 326 331 330 323 323 314 299 292 290 294 293 276 278 277 266 257 263 263 248 249 258 257 254 249 246 243 236
274 287 299 303 311 318 322 328 326 327 325 326 326 326 326 331 326 327 326 327 330 329 318 321 306 296 303 296 293 290 269 271 278 279 281 277 256 253 254 256 260 250 250 249 236
268 283 294 303 308 315 320 322 325 324 327 326 325 324 326 329 328 329 327 324 329 332 328 315 296 303 299 304 288 279 272 276 279 274 270 260 265 270 259 255 259 258 256 250 242
267 279 289 298 303 310 319 317 320 323 325 327 325 325 325 328 330 335 329 327 327 324 328 314 302 296 298 309 289 256 294 294 285 292 296 285 271 266 274 267 266 262 260 253 244
264 277 287 290 298 308 311 314 317 317 323 325 323 321 320 325 326 329 328 326 328 325 323 312 291 294 308 288 304 311 289 288 286 285 300 312 305 295 292 280 271 267 262 256 245
261 277 284 285 296 303 307 312 316 318 319 319 320 316 321 323 322 323 325 328 329 329 321 316 305 296 292 286 268 290 304 301 299 293 291 299 294 305 301 290 274 272 264 250 233
258 271 279 282 287 296 304 309 312 314 317 320 317 314 320 321 322 315 321 328 332 331 323 323 302 307 308 287 281 305 308 302 299 293 293 309 308 322 315 301 284 277 252 238 229
256 270 274 277 283 292 297 304 310 310 313 314 315 314 317 317 312 317 321 326 329 325 323 314 293 286 284 290 301 301 309 315 307 311 320 315 321 333 333 322 302 268 235 225 200
252 265 267 274 276 281 291 302 308 309 310 311 315 306 313 318 316 312 316 320 325 326 318 315 291 290 288 289 289 288 305 323 326 331 314 326 331 341 348 348 343 262 195 184 182
247 257 261 271 273 273 287 294 297 307 308 311 305 317 307 309 310 315 316 319 316 317 319 308 299 310 302 293 275 296 325 335 347 344 330 328 334 350 0 8 24 69 160 176 181
244 252 255 261 264 275 284 292 297 301 305 307 308 313 309 307 310 309 308 306 303 306 307 299 308 321 302 313 307 288 347 339 333 353 342 346 340 349 8 22 29 54 106 139 150